Location: Artiguedieu
(43.5000°N, 0.5454°E)
Time: 12:35:14
(UTC+00:00)

Sich 1 - Pass Details

Date: 06 December 2020
Orbit: 594 x 625 km, 82.5° (Epoch: 27 January)

Event Time Altitude Azimuth Distance (km) Brightness Sun altitude
Rises 04:52:49 0° 174° (S) 2,895 6.7 -25.2°
Reaches altitude 10° 04:55:05 10° 169° (S) 1,993 5.9 -24.8°
Maximum altitude 04:59:22 52° 94° (E) 784 3.9 -24.1°
Drops below altitude 10° 05:03:41 10° 18° (NNE) 2,004 5.8 -23.3°
Sets 05:05:57 0° 14° (NNE) 2,912 6.6 -22.9°
